Weather in Ivanchug

Russia / Astrakhan Oblast     46°04′23″N   47°58′54″E
temp.,
°C
wind,
m/s
gust,
m/s
humid.,
%
clouds,
%
prec.,
mm/h
press.,
hPa
HPBL,
m
27 november, sat
sat2701:00+3ese5957100 0.0 1026342
04:00+4ese597192 0.0 1025355
07:00+4ese5974100 0.0 1024347
10:00+4ese6977100 0.0 1024441
13:00+5ese7872100 0.0 1023501
16:00+5ese687393 0.0 1022485
19:00+4ese597364 0.0 1022308
22:00+4ese4873100 0.0 1022236
28 november, sun
sun2801:00+5ese376989 0.0 1021180
04:00+4se477674 0.0 1020119
07:00+4ese468276 0.0 102089
10:00+6ese4877100 0.0 1020186
13:00+9se5764100 0.0 1019365
16:00+8ese46679 0.0 1019301
19:00+5ese3680100 0.0 1020115
22:00+6ese3773100 0.0 1020172
29 november, mon
mon2901:00+6ese4670100 0.0 1020128
04:00+6ese3471100 0.0 101949
07:00+5ese337289 0.0 102026
10:00+7ese3663100 0.0 1021165
13:00+11se57445 0.0 1020445
16:00+10se58515 0.0 1019363
19:00+6se410748 0.0 1019213
22:00+6se513734 0.0 1017275
30 november, tue
tue3001:00+7sse61473100 0.0 1014303
04:00+8se8176993 0.0 1012366
07:00+9sse92079100 0.0 1008459
10:00+10sse81887100 0.0 1006477
13:00+12sw4881100 0.0 1007656
16:00+12wsw0178100 0.0 100649
19:00+11s118599 0.0 100611
22:00+10sw2290100 0.1 100414
1 december, wed
wed101:00+9ese229297 0.1 100011
04:00+8e4593100 0.1 99771
07:00+8w71193100 0.1 1000312
10:00+9w289296 1.1 999198
13:00+12w10206016 0.0 10011569
16:00+8nw11168096 0.0 10041076
19:00+5nw71468100 0.0 1007804
22:00+5wnw4964100 0.0 1010609